Melbourne, FL

2:19 AM EDT on July 24, 2017 (GMT -0400)
Melbourne International

Weather History for KMLB - November, 2013

Change the Weather History Date:

Friday, November 1, 2013

  Actual Average Record
Temperature  
Mean Temperature 81 °F 72 °F  
Max Temperature 90 °F 81 °F 90 °F (2013)
Min Temperature 71 °F 63 °F 37 °F (1993)
Degree Days  
Heating Degree Days 0 0  
Month to date heating degree days 0 0  
Since 1 July heating degree days 0 4  
Cooling Degree Days 16 8  
Month to date cooling degree days 16 8  
Year to date cooling degree days 3344 3045  
Growing Degree Days 30 (Base 50)    
Moisture  
Dew Point 68 °F    
Average Humidity 69    
Maximum Humidity 93    
Minimum Humidity 44    
Precipitation  
Precipitation 0.00 in 0.11 in 2.06 in (2006)
Month to date precipitation 0.00 0.11  
Year to date precipitation 35.99 46.66  
Sea Level Pressure  
Sea Level Pressure 29.95 in    
Wind  
Wind Speed 7 mph (SSW)    
Max Wind Speed 20 mph    
Max Gust Speed 28 mph    
Visibility 10 miles    
Events      
T = Trace of Precipitation, MM = Missing Value Source: NWS Daily Summary

Daily Weather History Graph

Daily Weather History Graph

Search for Another Location

Airport or City:

Trip Planner

Search our weather history database for the weather conditions in past years. The results will help you decide how hot, cold, wet, or windy it might be!

Date:

Astronomy

Nov. 01, 2013 Rise Set
Actual Time 7:34 AM EDT 6:37 PM EDT
Civil Twilight 7:09 AM EDT 7:02 PM EDT
Nautical Twilight 6:42 AM EDT 7:29 PM EDT
Astronomical Twilight 6:14 AM EDT 7:57 PM EDT
Moon 5:33 AM EDT (11/1) 5:23 PM EDT (11/1)
Length of Visible Light 11h 52m
Length of Day
11h 03m
Waning Crescent, 4% of the Moon is Illuminated
Nov 1
Waning Crescent
Nov 3
New
Nov 10
First Quarter
Nov 17
Full
Nov 25
Last Quarter

Hourly Weather History & Observations

Time (EDT) Temp. Heat Index Dew Point Humidity Pressure Visibility Wind Dir Wind Speed Gust Speed Precip Events Conditions
12:53 AM 75.9 °F - 70.0 °F 82% 30.02 in 10.0 mi South 4.6 mph - N/A   Partly Cloudy
1:53 AM 75.0 °F - 70.0 °F 84% 30.00 in 10.0 mi South 5.8 mph - N/A   Partly Cloudy
2:53 AM 75.0 °F - 70.0 °F 84% 29.99 in 10.0 mi South 6.9 mph - N/A   Scattered Clouds
3:53 AM 75.0 °F - 70.0 °F 84% 29.98 in 10.0 mi SSW 4.6 mph - N/A   Overcast
4:53 AM 73.9 °F - 70.0 °F 87% 29.98 in 10.0 mi SSW 3.5 mph - N/A   Mostly Cloudy
5:53 AM 73.9 °F - 70.0 °F 87% 29.99 in 10.0 mi WSW 4.6 mph - N/A   Overcast
6:53 AM 73.0 °F - 70.0 °F 90% 29.99 in 10.0 mi Calm Calm - N/A   Mostly Cloudy
7:53 AM 72.0 °F - 70.0 °F 93% 30.00 in 10.0 mi Calm Calm - N/A   Clear
8:53 AM 73.9 °F - 71.1 °F 91% 30.01 in 10.0 mi Calm Calm - N/A   Overcast
9:53 AM 80.1 °F 83.8 °F 72.0 °F 76% 30.00 in 10.0 mi South 6.9 mph - N/A   Partly Cloudy
10:16 AM 80.6 °F 84.6 °F 71.6 °F 74% 30.00 in 10.0 mi South 12.7 mph 16.1 mph N/A   Mostly Cloudy
10:53 AM 82.0 °F 86.7 °F 72.0 °F 71% 30.00 in 10.0 mi SSW 13.8 mph - N/A   Mostly Cloudy
11:53 AM 82.0 °F 85.9 °F 70.0 °F 67% 29.98 in 10.0 mi SSW 11.5 mph - N/A   Partly Cloudy
12:53 PM 88.0 °F 90.7 °F 66.9 °F 49% 29.95 in 10.0 mi SSW 15.0 mph 21.9 mph N/A   Partly Cloudy
1:53 PM 89.1 °F 91.3 °F 66.0 °F 46% 29.91 in 10.0 mi SSW 16.1 mph - N/A   Scattered Clouds
2:53 PM 89.1 °F 91.3 °F 66.0 °F 46% 29.89 in 10.0 mi SSW 11.5 mph 19.6 mph N/A   Scattered Clouds
3:53 PM 89.1 °F 90.3 °F 64.0 °F 43% 29.88 in 10.0 mi South 17.3 mph 24.2 mph N/A   Scattered Clouds
4:53 PM 87.1 °F 88.9 °F 64.9 °F 48% 29.88 in 10.0 mi SW 11.5 mph - N/A   Scattered Clouds
5:53 PM 87.1 °F 89.2 °F 66.0 °F 49% 29.88 in 10.0 mi SW 12.7 mph - N/A   Partly Cloudy
6:53 PM 82.0 °F 83.8 °F 64.9 °F 56% 29.89 in 10.0 mi SW 3.5 mph - N/A   Clear
7:53 PM 81.0 °F 83.0 °F 66.0 °F 60% 29.90 in 10.0 mi SSW 3.5 mph - N/A   Clear
8:53 PM 78.1 °F - 64.9 °F 64% 29.91 in 10.0 mi SW 4.6 mph - N/A   Clear
9:53 PM 75.9 °F - 64.9 °F 69% 29.91 in 10.0 mi SSW 3.5 mph - N/A   Clear
10:53 PM 75.0 °F - 66.0 °F 73% 29.93 in 10.0 mi South 4.6 mph - N/A   Clear
11:53 PM 73.9 °F - 66.0 °F 76% 29.91 in 10.0 mi South 6.9 mph - N/A   Clear